This is the latest recevied weather packets stored in our database for station/object WX6HNX-2. If no packets are shown the sender has not sent any weather packets the latest 10 day(s).
| Time | Temp. | Humidity | Pressure | Rain* | Wind** | Luminosity | Snow |
|---|---|---|---|---|---|---|---|
| 1777863871 | 15.56° C | 71% | 1010.9 hPa | 0 mm | - | - | - |
| 1777863393 | 16.11° C | 70% | 1010.8 hPa | 0 mm | - | - | - |
| 1777863153 | 16.11° C | 71% | 1010.7 hPa | 0 mm | - | - | - |
| 1777862913 | 16.11° C | 70% | 1010.5 hPa | 0 mm | - | - | - |
| 1777862093 | 16.67° C | 68% | 1010.3 hPa | 0 mm | - | - | - |
| 1777861853 | 16.67° C | 68% | 1010.2 hPa | 0 mm | - | - | - |
| 1777861613 | 16.67° C | 68% | 1010.3 hPa | 0 mm | - | - | - |
| 1777861373 | 16.67° C | 67% | 1010.2 hPa | 0 mm | - | - | - |
| 1777860893 | 17.22° C | 67% | 1010.1 hPa | 0 mm | - | - | - |
| 1777860413 | 17.22° C | 65% | 1009.9 hPa | 0 mm | - | - | - |
| 1777860173 | 17.78° C | 66% | 1009.9 hPa | 0 mm | - | - | - |
| 1777859933 | 17.78° C | 66% | 1009.8 hPa | 0 mm | - | - | - |
| 1777859693 | 17.78° C | 65% | 1009.9 hPa | 0 mm | - | - | - |
| 1777859335 | 17.78° C | 64% | 1010.7 hPa | 0 mm | - | - | - |
| 1777859095 | 17.78° C | 63% | 1010.7 hPa | 0 mm | - | - | - |
| 1777858855 | 18.33° C | 63% | 1010.8 hPa | 0 mm | - | - | - |
| 1777858615 | 18.33° C | 62% | 1010.7 hPa | 0 mm | - | - | - |
| 1777858375 | 18.89° C | 62% | 1010.7 hPa | 0 mm | - | - | - |
| 1777858135 | 18.89° C | 61% | 1010.6 hPa | 0 mm | - | - | - |
| 1777857895 | 18.89° C | 62% | 1010.7 hPa | 0 mm | - | - | - |
| 1777857413 | 18.33° C | 63% | 1010.8 hPa | 0 mm | - | - | - |
| 1777857173 | 18.33° C | 62% | 1010.9 hPa | 0 mm | - | - | - |
| 1777856933 | 18.33° C | 62% | 1010.9 hPa | 0 mm | - | - | - |
| 1777856351 | 18.89° C | 61% | 1010.9 hPa | 0 mm | - | - | - |
| 1777856111 | 19.44° C | 60% | 1010.9 hPa | 0 mm | - | - | - |
* Rain latest hour (hover to see other rain measurements)
** Current wind speed in m/s (hover to see current wind gust speed)